Preview of NWS' New Version of Forecast
This preview is not operational and should not be used for support decisions.

Regional Weather Roundup (RWR)

Issued by National Weather Service (NWS)

                            
000
ASUS46 KSEW 181210
RWRWA 

WASHINGTON REGIONAL WEATHER ROUNDUP
NATIONAL WEATHER SERVICE SEATTLE WA
500 AM PDT SAT MAY 18 2019

NOTE:"FAIR" INDICATES FEW OR NO CLOUDS BELOW 12,000 FEET WITH NO 
SIGNIFICANT WEATHER AND/OR OBSTRUCTIONS TO VISIBILITY.

WAZ507-509-555>559-181300-
SEATTLE, TACOMA, EVERETT, AND VICINITY
  
CITY           SKY/WX    TMP DP  RH WIND       PRES   REMARKS
EVERETT        CLOUDY    51  45  79 SE7       29.91F                  
6HR MIN TEMP:  51; 6HR MAX TEMP:  54; 6HR PCP: TRACE;                

BOEING FIELD   PTCLDY    54  46  74 E6        29.89F                  
6HR MIN TEMP:  54; 6HR MAX TEMP:  56;                                

RENTON         PTCLDY    53  47  79 CALM      29.89F                  
6HR MIN TEMP:  52; 6HR MAX TEMP:  56;                                

SEATAC AIRPORT MOCLDY    53  45  74 E5        29.90F                  
6HR MIN TEMP:  52; 6HR MAX TEMP:  54;                                

JBLM-MCCHORD   CLOUDY    50  50  99 CALM      29.89F                  
6HR MIN TEMP:  50; 6HR MAX TEMP:  54;                                

PUYALLUP       CLOUDY    50  48  93 CALM      29.89F                  
BREMERTON      CLOUDY    47  45  93 E3        29.90F                  
6HR MIN TEMP:  45; 6HR MAX TEMP:  51;                                

JBLM-FT LEWIS  MOCLDY    50  49  99 CALM      29.88F                  
6HR MIN TEMP:  49; 6HR MAX TEMP:  54;                                

TACOMA NARROWS CLOUDY    51  45  79 E3        29.89F                  
6HR MIN TEMP:  50; 6HR MAX TEMP:  52;                                

$$
 
WAZ001-503-506-510-514-515-181300-
NORTH INTERIOR
  
CITY           SKY/WX    TMP DP  RH WIND       PRES   REMARKS
BELLINGHAM     CLEAR     52  42  69 SE3       29.89F                  
6HR MIN TEMP:  52; 6HR MAX TEMP:  57;                                

FRIDAY HARBOR  MOCLDY    50  45  83 SE5       29.89S                  
6HR MIN TEMP:  50; 6HR MAX TEMP:  54; 6HR PCP: TRACE;                

EASTSOUND      CLOUDY    54  46  76 SE9G15    29.87F                  
PORT ANGELES   MOCLDY    44  41  89 SW6       29.88F                  
6HR MIN TEMP:  41; 6HR MAX TEMP:  46;                                

EDIZ HOOK      FAIR      47  44  88 SW3       29.87F                  
6HR MIN TEMP:  46; 6HR MAX TEMP:  49;                                

PORT TOWNSEND  FAIR      41  41 100 CALM      29.88S                  
NAS WHIDBEY    NOT AVBL                                               
ARLINGTON      CLOUDY    50  46  86 CALM      29.91F                  
6HR MIN TEMP:  50; 6HR MAX TEMP:  55; 6HR PCP: TRACE;                

BURLINGTON     MOCLDY    50  45  81 E6        29.90F                  
$$
 
WAZ020-022-039-040-504-511-512-181300-
SOUTHWEST INTERIOR
  
CITY           SKY/WX    TMP DP  RH WIND       PRES   REMARKS
SHELTON        CLOUDY    50  46  86 CALM      29.87F                  
6HR MIN TEMP:  49; 6HR MAX TEMP:  51;                                

OLYMPIA        CLOUDY    50  47  89 CALM      29.89F                  
6HR MIN TEMP:  48; 6HR MAX TEMP:  51;                                

CHEHALIS       CLOUDY    50  50 100 CALM      29.89F                  
KELSO          CLOUDY    52  48  86 S3        29.89F                  
6HR MIN TEMP:  51; 6HR MAX TEMP:  54;                                

VANCOUVER      CLOUDY    52  47  83 SE5       29.88F                  
6HR MIN TEMP:  52; 6HR MAX TEMP:  55; 6HR PCP: TRACE;                

SCAPPOOSE, OR  CLOUDY    54  48  80 E3        29.88F                  
6HR MIN TEMP:  52; 6HR MAX TEMP:  56;                                

PORTLAND, OR   CLOUDY    52  48  86 SE7       29.89F                  
6HR MIN TEMP:  52; 6HR MAX TEMP:  54; 6HR PCP: TRACE;                

$$
 
WAZ021-516-517-181300-
WASHINGTON COAST
  
CITY           SKY/WX    TMP DP  RH WIND       PRES   REMARKS
FORKS          CLOUDY    48  47  96 E3        29.85F                  
6HR MIN TEMP:  48; 6HR MAX TEMP:  50; 6HR PCP:  0.03;                

HOQUIAM        CLOUDY    50  50 100 E8        29.87S FOG              
6HR MIN TEMP:  50; 6HR MAX TEMP:  52; 6HR PCP:  0.02;                

ASTORIA, OR    CLOUDY    51  48  89 E6        29.84F                  
6HR MIN TEMP:  51; 6HR MAX TEMP:  53; 6HR PCP:  0.01;                

$$
 
WAZ019-023-024-040-567>569-181300-
CASCADE MOUNTAINS AND COLUMBIA GORGE
  
CITY           SKY/WX    TMP DP  RH WIND       PRES   REMARKS
STAMPEDE PASS  CLOUDY    38  35  89 N3        29.88F FOG              
6HR MIN TEMP:  38; 6HR MAX TEMP:  39; 6HR PCP:  0.03;                

TROUTDALE, OR  CLOUDY    52  47  83 E12       29.88F                  
6HR MIN TEMP:  48; 6HR MAX TEMP:  53; 6HR PCP: TRACE;                

HOOD RIVER, OR CLOUDY    43  41  93 S3        29.91F                  
THE DALLES, OR MOCLDY    43  38  82 E3        29.91F                  
6HR MIN TEMP:  40; 6HR MAX TEMP:  54;                                

$$

WAZ026-027-041>044-520-521-181300-
EAST SLOPES
  
CITY           SKY/WX    TMP DP  RH WIND       PRES   REMARKS
OMAK           MOCLDY    49  37  63 NW7       29.84R                  
6HR MIN TEMP:  47; 6HR MAX TEMP:  52;                                

WENATCHEE      PTCLDY    46  36  68 NW6       29.86S                  
6HR MIN TEMP:  46; 6HR MAX TEMP:  52;                                

ELLENSBURG     PTCLDY    43  37  79 NW8       29.87S                  
6HR MIN TEMP:  42; 6HR MAX TEMP:  50;                                

YAKIMA         CLEAR     38  35  89 NW3       29.89S                  
6HR MIN TEMP:  36; 6HR MAX TEMP:  53;                                

SUNNYSIDE ARPT SUNNY     40  38  95 NE6       29.89F                  
6HR MIN TEMP:  39; 6HR MAX TEMP:  52;                                

YAKIMA TC      FAIR      40  35  82 E5        29.87S                  
6HR MIN TEMP:  39; 6HR MAX TEMP:  51;                                

$$

WAZ028-034-035-181300-
COLUMBIA BASIN
  
CITY           SKY/WX    TMP DP  RH WIND       PRES   REMARKS
EPHRATA        PTCLDY    49  36  61 CALM      29.85R                  
6HR MIN TEMP:  43; 6HR MAX TEMP:  53;                                

MOSES LAKE     PTCLDY    47  32  56 W5        29.86R                  
6HR MIN TEMP:  47; 6HR MAX TEMP:  54;                                

PASCO          CLEAR     51  41  68 S6        29.90S                  
6HR MIN TEMP:  50; 6HR MAX TEMP:  60;                                

RICHLAND ARPT  SUNNY     50  43  76 S7        29.90S                  
6HR MIN TEMP:  48; 6HR MAX TEMP:  54;                                

HERMISTON, OR  CLEAR     44  39  82 E3        29.91F                  
6HR MIN TEMP:  43; 6HR MAX TEMP:  53;                                

$$

WAZ036>038-181300-
NORTHEAST WASHINGTON
  
CITY           SKY/WX    TMP DP  RH WIND       PRES   REMARKS
SPOKANE GEIGER LGT RAIN  44  40  85 S7        29.86R                  
6HR MIN TEMP:  44; 6HR MAX TEMP:  50; 6HR PCP:  0.05;                

SPOKANE FELTS  LGT RAIN  47  42  83 S7        29.88R                  
6HR MIN TEMP:  47; 6HR MAX TEMP:  52; 6HR PCP:  0.29;                

FAIRCHILD AFB  CLOUDY    43  43 100 S9        29.85R                  
6HR MIN TEMP:  43; 6HR MAX TEMP:  50; 6HR PCP:  0.02;                

COEURDALENE,ID LGT RAIN  46  44  93 W5        29.88R FOG              
6HR MIN TEMP:  45; 6HR MAX TEMP:  49; 6HR PCP:  0.14;                

DEER PARK      LGT RAIN  47  45  93 VRB6      29.86R FOG              
6HR MIN TEMP:  47; 6HR MAX TEMP:  50; 6HR PCP:  0.25;                

$$

WAZ029>033-181300-
SOUTHEAST WASHINGTON
  
CITY           SKY/WX    TMP DP  RH WIND       PRES   REMARKS
PULLMAN        CLOUDY    46  39  76 SW3       29.91S                  
6HR MIN TEMP:  46; 6HR MAX TEMP:  50;                                

LEWISTON, ID   CLOUDY    53  41  63 S7        29.90R                  
6HR MIN TEMP:  53; 6HR MAX TEMP:  55;                                

WALLA WALLA    PTCLDY    47  39  74 S6        29.91S                  
6HR MIN TEMP:  47; 6HR MAX TEMP:  54;                                

PENDLETON, OR  CLEAR     42  37  82 S8        29.91F                  
6HR MIN TEMP:  42; 6HR MAX TEMP:  50;                                

$$